Location: Boissi�res
(45.2500°N, 2.3667°E)
Time: 23:29:32
(UTC+00:00)

Cosmos 1066 Rocket - Pass Details

Date: 03 March 2021
Orbit: 799 x 894 km, 81.2° (Epoch: 18 April)

Event Time Altitude Azimuth Distance (km) Brightness Sun altitude
Rises 19:35:47 0° 351° (N) 3,440 7.6 -21.0°
Reaches altitude 10° 19:38:14 10° 355° (N) 2,513 6.9 -21.4°
Maximum altitude 19:43:56 64° 77° (ENE) 973 4.2 -22.4°
Enters shadow 19:45:42 43° 138° (SE) 1,216 4.6 -22.7°
